Location: �quirre
(50.4736°N, 2.2351°E)
Time: 08:10:57
(UTC+00:00)

Cosmos 2263 Rocket - Pass Details

Date: 07 August 2020
Orbit: 823 x 848 km, 71.0° (Epoch: 26 September)

Event Time Altitude Azimuth Distance (km) Brightness Sun altitude
Exits shadow 02:24:22 - 161° (SSE) 2,872 4.6 -15.8°
Reaches altitude 10° 02:25:48 10° 153° (SSE) 2,423 4.3 -15.6°
Maximum altitude 02:30:03 23° 102° (ESE) 1,688 4.1 -15.2°
Drops below altitude 10° 02:34:19 10° 52° (NE) 2,432 5.9 -14.8°
Sets 02:37:12 0° 38° (NE) 3,370 7.3 -14.5°
